Hourly Weather Rudnoe

Today, 15 April, Thursday

Time Temperature Precipitation Wind Pressure Humidity
00:00 +4°C° 0 mm 2 mps 747 mmHg 81%
01:00 +4°C° 0 mm 2 mps 747 mmHg 81%
02:00 +3°C° 0 mm 2 mps 747 mmHg 81%
03:00 +3°C° 0 mm 2 mps 746 mmHg 81%
04:00 +1°C° 0 mm 2 mps 747 mmHg 83%
05:00 +2°C° 0 mm 2 mps 746 mmHg 82%
06:00 +3°C° 0 mm 2 mps 746 mmHg 81%
07:00 +3°C° 0 mm 2 mps 746 mmHg 79%
08:00 +5°C° 0 mm 2 mps 746 mmHg 78%
09:00 +7°C° 0 mm 2 mps 746 mmHg 77%
10:00 +9°C° 0 mm 2 mps 746 mmHg 72%
11:00 +10°C° 0 mm 2 mps 745 mmHg 70%
12:00 +12°C° 0 mm 2 mps 745 mmHg 67%
13:00 +14°C° 0 mm 2 mps 745 mmHg 65%
14:00 +14°C° 0 mm 2 mps 745 mmHg 62%
15:00 +15°C° 0 mm 2 mps 744 mmHg 60%
16:00 +15°C° 0 mm 2 mps 744 mmHg 57%
17:00 +14°C° 0 mm 2 mps 743 mmHg 63%
18:00 +12°C° 0 mm 2 mps 743 mmHg 69%
19:00 +10°C° 0 mm 2 mps 743 mmHg 75%
20:00 +10°C° 0 mm 1 mps 743 mmHg 74%
21:00 +9°C° 0 mm 1 mps 742 mmHg 74%
22:00 +9°C° 0 mm 1 mps 742 mmHg 74%
23:00 +8°C° 0 mm 1 mps 742 mmHg 74%

Tomorrow, 16 April, Friday

Time Temperature Precipitation Wind Pressure Humidity
00:00 +8°C° 0 mm 1 mps 742 mmHg 73%
01:00 +7°C° 0 mm 1 mps 742 mmHg 72%
02:00 +7°C° 0 mm 1 mps 742 mmHg 72%
03:00 +7°C° 0 mm 1 mps 741 mmHg 72%
04:00 +6°C° 0 mm 1 mps 741 mmHg 72%
05:00 +7°C° 0 mm 1 mps 741 mmHg 70%
06:00 +8°C° 0 mm 1 mps 741 mmHg 69%
07:00 +8°C° 0 mm 1 mps 741 mmHg 67%
08:00 +10°C° 0 mm 1 mps 741 mmHg 62%
09:00 +12°C° 0 mm 1 mps 741 mmHg 56%
10:00 +14°C° 0 mm 1 mps 741 mmHg 51%
11:00 +15°C° 0 mm 1 mps 741 mmHg 47%
12:00 +16°C° 0 mm 1 mps 741 mmHg 44%
13:00 +18°C° 0 mm 1 mps 741 mmHg 40%
14:00 +19°C° 0 mm 1 mps 741 mmHg 39%
15:00 +19°C° 0 mm 1 mps 741 mmHg 39%
16:00 +19°C° 0 mm 1 mps 741 mmHg 38%
17:00 +18°C° 0 mm 1 mps 741 mmHg 43%
18:00 +16°C° 0 mm 1 mps 741 mmHg 48%
19:00 +14°C° 0 mm 2 mps 741 mmHg 54%
20:00 +14°C° 0 mm 2 mps 741 mmHg 57%
21:00 +13°C° 0 mm 2 mps 741 mmHg 60%
22:00 +12°C° 0 mm 2 mps 741 mmHg 63%
23:00 +10°C° 0 mm 2 mps 741 mmHg 68%

Day after tomorrow, 17 April, Saturday

Time Temperature Precipitation Wind Pressure Humidity
00:00 +9°C° 0 mm 3 mps 741 mmHg 73%
01:00 +7°C° 0 mm 4 mps 741 mmHg 78%
02:00 +7°C° 0 mm 4 mps 742 mmHg 82%
03:00 +6°C° 0 mm 4 mps 742 mmHg 87%
04:00 +6°C° 0 mm 4 mps 742 mmHg 91%
05:00 +6°C° 0 mm 4 mps 742 mmHg 90%
06:00 +6°C° 0 mm 4 mps 742 mmHg 89%
07:00 +7°C° 0 mm 4 mps 742 mmHg 88%
08:00 +8°C° 0 mm 4 mps 742 mmHg 80%
09:00 +11°C° 0 mm 4 mps 743 mmHg 73%
10:00 +12°C° 0 mm 5 mps 743 mmHg 65%
11:00 +13°C° 0 mm 4 mps 743 mmHg 61%
12:00 +14°C° 0 mm 4 mps 742 mmHg 56%
13:00 +16°C° 0 mm 3 mps 742 mmHg 51%
14:00 +17°C° 0 mm 3 mps 742 mmHg 50%
15:00 +17°C° 0 mm 3 mps 742 mmHg 49%
16:00 +17°C° 0 mm 3 mps 742 mmHg 47%
17:00 +16°C° 0 mm 3 mps 742 mmHg 53%
18:00 +14°C° 0 mm 3 mps 742 mmHg 59%
19:00 +12°C° 0 mm 3 mps 742 mmHg 65%
20:00 +12°C° 0 mm 2 mps 742 mmHg 70%
21:00 +10°C° 0 mm 2 mps 742 mmHg 74%
22:00 +9°C° 0 mm 2 mps 742 mmHg 78%
23:00 +10°C° 0 mm 1 mps 742 mmHg 80%

18 April, Sunday

Time Temperature Precipitation Wind Pressure Humidity
00:00 +9°C° 0 mm 1 mps 742 mmHg 82%
01:00 +9°C° 0 mm 1 mps 741 mmHg 84%
02:00 +8°C° 0 mm 1 mps 741 mmHg 84%
03:00 +8°C° 0 mm 1 mps 741 mmHg 85%
04:00 +8°C° 0 mm 1 mps 741 mmHg 86%
05:00 +8°C° 0 mm 1 mps 741 mmHg 85%
06:00 +8°C° 0 mm 1 mps 741 mmHg 84%
07:00 +9°C° 0 mm 1 mps 741 mmHg 83%
08:00 +9°C° 0 mm 2 mps 741 mmHg 74%
09:00 +12°C° 0 mm 2 mps 741 mmHg 65%
10:00 +12°C° 0 mm 3 mps 741 mmHg 57%
11:00 +13°C° 0 mm 3 mps 741 mmHg 52%
12:00 +14°C° 0 mm 3 mps 740 mmHg 48%
13:00 +14°C° 0 mm 4 mps 740 mmHg 43%
14:00 +14°C° 0 mm 4 mps 740 mmHg 40%
15:00 +14°C° 0 mm 4 mps 740 mmHg 37%
16:00 +14°C° 0 mm 5 mps 740 mmHg 34%
17:00 +13°C° 0 mm 4 mps 740 mmHg 39%
18:00 +12°C° 0 mm 4 mps 740 mmHg 44%
19:00 +10°C° 0 mm 4 mps 740 mmHg 49%
20:00 +8°C° 0 mm 4 mps 740 mmHg 53%
21:00 +8°C° 0 mm 4 mps 740 mmHg 56%
22:00 +7°C° 0 mm 4 mps 740 mmHg 60%
23:00 +4°C° 0 mm 6 mps 740 mmHg 62%

19 April, Monday

Time Temperature Precipitation Wind Pressure Humidity
00:00 +3°C° 0 mm 7 mps 741 mmHg 64%
01:00 +1°C° 0 mm 8 mps 741 mmHg 66%
02:00 0°C° 0 mm 8 mps 742 mmHg 65%
03:00 -1°C° 0 mm 8 mps 742 mmHg 63%
04:00 -2°C° 0 mm 8 mps 743 mmHg 62%
05:00 -3°C° 0 mm 9 mps 743 mmHg 60%
06:00 -3°C° 0 mm 9 mps 743 mmHg 59%
07:00 -3°C° 0 mm 9 mps 744 mmHg 57%
08:00 -3°C° 0 mm 9 mps 744 mmHg 54%
09:00 -1°C° 0 mm 9 mps 744 mmHg 51%
10:00 -1°C° 0 mm 9 mps 744 mmHg 48%
11:00 -1°C° 0 mm 9 mps 744 mmHg 45%
12:00 0°C° 0 mm 8 mps 745 mmHg 41%
13:00 0°C° 0 mm 8 mps 745 mmHg 38%
14:00 0°C° 0 mm 8 mps 745 mmHg 37%
15:00 0°C° 0 mm 8 mps 745 mmHg 36%
16:00 0°C° 0 mm 8 mps 745 mmHg 36%
17:00 0°C° 0 mm 7 mps 745 mmHg 36%
18:00 -1°C° 0 mm 7 mps 746 mmHg 37%
19:00 -2°C° 0 mm 7 mps 746 mmHg 38%
20:00 -2°C° 0 mm 7 mps 746 mmHg 39%
21:00 -3°C° 0 mm 7 mps 746 mmHg 41%
22:00 -4°C° 0 mm 7 mps 746 mmHg 42%
23:00 -4°C° 0 mm 7 mps 746 mmHg 42%

20 April, Tuesday

Time Temperature Precipitation Wind Pressure Humidity
00:00 -4°C° 0 mm 7 mps 747 mmHg 41%
01:00 -4°C° 0 mm 7 mps 747 mmHg 41%
02:00 -6°C° 0 mm 7 mps 747 mmHg 41%
03:00 -6°C° 0 mm 7 mps 747 mmHg 41%
04:00 -5°C° 0 mm 6 mps 747 mmHg 40%
05:00 -6°C° 0 mm 7 mps 748 mmHg 39%
06:00 -6°C° 0 mm 7 mps 748 mmHg 38%
07:00 -4°C° 0 mm 7 mps 748 mmHg 37%
08:00 -3°C° 0 mm 7 mps 748 mmHg 33%
09:00 -2°C° 0 mm 7 mps 748 mmHg 30%
10:00 0°C° 0 mm 8 mps 748 mmHg 26%
11:00 0°C° 0 mm 7 mps 748 mmHg 26%
12:00 +2°C° 0 mm 7 mps 748 mmHg 26%
13:00 +3°C° 0 mm 7 mps 748 mmHg 26%
14:00 +4°C° 0 mm 6 mps 748 mmHg 26%
15:00 +4°C° 0 mm 6 mps 748 mmHg 27%
16:00 +4°C° 0 mm 6 mps 748 mmHg 27%
17:00 +3°C° 0 mm 5 mps 748 mmHg 32%
18:00 +3°C° 0 mm 4 mps 748 mmHg 38%
19:00 +2°C° 0 mm 3 mps 749 mmHg 43%
20:00 +2°C° 0 mm 2 mps 749 mmHg 45%
21:00 +2°C° 0 mm 2 mps 749 mmHg 47%
22:00 +1°C° 0 mm 2 mps 749 mmHg 49%
23:00 +1°C° 0 mm 1 mps 750 mmHg 49%
Show more